Location: Unspecified
(0.0000°N, 0.0000°E)
Time: 01:00:38
(UTC+02:00)

Altair - All Passes

Search period start: 25 July 2014 00:00
Search period end: 04 August 2014 00:00
Orbit: 1502 x 1682 km, 47.2° (Epoch: 24 July)

Date Brightness Start Highest point End Pass type
(mag) Time Alt. Az. Time Alt. Az. Time Alt. Az.
25 Jul - 02:52:39 10° SSW 03:01:46 56° SE 03:10:39 10° NE visible
25 Jul - 04:58:37 10° WSW 05:06:14 29° NW 05:13:49 10° N visible
25 Jul - 13:38:40 10° N 13:46:12 24° NE 13:53:50 10° E daylight
25 Jul - 15:41:02 10° NW 15:50:59 73° SW 16:01:08 10° SSE daylight
25 Jul - 17:51:42 10° WSW 17:56:18 14° SW 18:00:56 10° SSW daylight
26 Jul - 02:27:39 10° SSW 02:36:38 50° SE 02:45:23 10° ENE visible
26 Jul - 04:33:07 10° WSW 04:41:05 33° NW 04:49:01 10° NNE visible
26 Jul - 13:14:01 10° N 13:20:59 21° NE 13:28:03 10° E daylight
26 Jul - 15:15:51 10° NW 15:25:49 81° SW 15:36:01 10° SE daylight
26 Jul - 17:25:26 10° W 17:31:01 16° SW 17:36:39 10° S daylight
27 Jul - 02:02:41 10° SSW 02:11:31 45° SE 02:20:05 10° ENE night (unlit)
27 Jul - 04:07:39 10° WSW 04:15:58 37° NW 04:24:11 10° NNE visible
27 Jul - 12:49:27 10° N 12:55:46 19° NE 13:02:08 10° E daylight
27 Jul - 14:50:42 10° NW 15:00:39 89° SW 15:10:52 10° SE daylight
27 Jul - 16:59:23 10° W 17:05:44 18° SW 17:12:10 10° S daylight
28 Jul - 01:37:45 10° SSW 01:46:22 40° SE 01:54:44 10° ENE night (unlit)
28 Jul - 03:42:15 10° WSW 03:50:50 42° NW 03:59:18 10° NNE visible
28 Jul - 12:25:01 10° NNE 12:30:31 16° NE 12:36:04 10° E daylight
28 Jul - 14:25:35 10° NW 14:35:30 83° NE 14:45:41 10° SE daylight
28 Jul - 16:33:30 10° W 16:40:29 21° SW 16:47:34 10° S daylight
29 Jul - 01:12:51 10° SSW 01:21:14 35° SE 01:29:20 10° ENE night (unlit)
29 Jul - 03:16:53 10° WSW 03:25:43 48° NW 03:34:24 10° NNE visible
29 Jul - 12:00:48 10° NNE 12:05:16 14° NE 12:09:47 10° ENE daylight
29 Jul - 14:00:29 10° NW 14:10:20 75° NE 14:20:28 10° SE daylight
29 Jul - 16:07:44 10° W 16:15:15 24° SW 16:22:53 10° S daylight
30 Jul - 00:47:59 10° S 00:56:04 31° SE 01:03:54 10° ENE night (unlit)
30 Jul - 02:51:34 10° SW 03:00:36 54° NW 03:09:27 10° NNE visible
30 Jul - 11:36:59 10° NNE 11:40:00 12° NE 11:43:02 10° ENE daylight
30 Jul - 13:35:26 10° NNW 13:45:11 68° NE 13:55:13 10° SE daylight
30 Jul - 15:42:04 10° W 15:50:01 27° SW 15:58:07 10° S daylight
31 Jul - 00:23:09 10° S 00:30:54 28° SE 00:38:23 10° ENE night (unlit)
31 Jul - 02:26:17 10° SW 02:35:30 60° NW 02:44:29 10° NNE visible
31 Jul - 13:10:25 10° NNW 13:20:02 61° NE 13:29:56 10° SE daylight
31 Jul - 15:16:29 10° WNW 15:24:48 30° SW 15:33:18 10° S daylight
31 Jul - 23:58:23 10° S 00:05:43 25° SE 00:12:49 10° E night (unlit)
01 Aug - 02:01:02 10° SW 02:10:23 68° NW 02:19:29 10° NNE visible
01 Aug - 04:13:38 10° NW 04:15:24 11° NW 04:17:10 10° NNW visible
01 Aug - 12:45:26 10° NNW 12:54:52 54° NE 13:04:36 10° SE daylight
01 Aug - 14:50:58 10° WNW 14:59:35 34° SW 15:08:26 10° SSE daylight
01 Aug - 23:33:40 10° S 23:40:31 22° SE 23:47:09 10° E night (unlit)
02 Aug - 01:35:49 10° SW 01:45:17 76° NW 01:54:27 10° NE night (unlit)
02 Aug - 03:46:32 10° WNW 03:50:10 13° NW 03:53:48 10° NNW visible
02 Aug - 12:20:28 10° NNW 12:29:43 48° NE 12:39:14 10° ESE daylight
02 Aug - 14:25:30 10° WNW 14:34:23 38° SW 14:43:32 10° SSE daylight
02 Aug - 23:09:02 10° S 23:15:18 19° SE 23:21:23 10° E night (unlit)
03 Aug - 01:10:38 10° SW 01:20:10 84° NW 01:29:23 10° NE night (unlit)
03 Aug - 03:20:10 10° WNW 03:24:57 15° NW 03:29:42 10° NNW visible
03 Aug - 11:55:33 10° NNW 12:04:33 43° NE 12:13:50 10° ESE daylight
03 Aug - 14:00:06 10° WNW 14:09:12 43° SW 14:18:36 10° SSE daylight
03 Aug - 22:44:29 10° S 22:50:04 17° SE 22:55:30 10° E visible
